Regional Weather Roundup
Issued by NWS Cleveland, OH

Home | Current Version | Previous Version | Graphics & Text | Print | Product List | Glossary On
Versions: 1 2 3 4 5 6 7 8 9 10 11 12 13 14 15 16 17 18 19 20 21 22 23 24 25 26 27 28 29 30 31 32 33 34 35 36 37 38 39 40 41 42 43 44 45 46 47 48 49 50
000
ASUS41 KCLE 291902
RWRCLE
OHIO REGIONAL WEATHER ROUNDUP
NATIONAL WEATHER SERVICE CLEVELAND, OH
300 PM EDT WED MAR 29 2017

NOTE: "FAIR" INDICATES FEW OR NO CLOUDS BELOW 12,000 FEET WITH NO
SIGNIFICANT WEATHER AND/OR OBSTRUCTIONS TO VISIBILITY.

OHZ001>008-015>018-024>027-034-035-043-044-292000-
   NORTHWEST OHIO

CITY           SKY/WX    TMP DP  RH WIND       PRES   REMARKS
DEFIANCE       MOSUNNY   53  34  48 E17       30.22F
FINDLAY        SUNNY     57  34  41 NE15      30.21F
TOLEDO EXPRESS MOSUNNY   52  29  41 NE16      30.25F
TOLEDO EXEC    SUNNY     53  34  48 NE12      30.27F
LIMA           SUNNY     54  42  64 E15       30.21F
$$

OHZ009>014-019>023-028>033-038-089-292000-
   NORTHEAST OHIO

CITY           SKY/WX    TMP DP  RH WIND       PRES   REMARKS
CLE-HOPKINS    CLOUDY    52  34  50 N13       30.27S
CLE-LAKEFRONT    N/A    N/A N/A N/A MISG      30.26S
CUY CO. ARPT   MOSUNNY   52  37  58 N14       30.25R
LORAIN-ELYRIA  SUNNY     52  33  48 NE16      30.23F
ASHTABULA      SUNNY     53  31  42 N8G17     30.25R
AKRON-CANTON   MOSUNNY   56  35  45 N6        30.21R
WOOSTER        SUNNY     54  35  48 VRB6      30.21F
MANSFIELD      SUNNY     54  39  57 NE9       30.20F
YOUNGSTOWN     MOSUNNY   55  33  43 CALM      30.21S
$$

OHZ042-051>053-060>062-070>072-077>081-292000-
  SOUTHWEST OHIO

CITY           SKY/WX    TMP DP  RH WIND       PRES   REMARKS
CINC-COVINGTON CLOUDY    54  44  69 E9        30.16F
CINC-LUNKEN    CLOUDY    55  46  71 NE9       30.18F
HAMILTON       PTSUNNY   54  44  69 E9        30.19F
DAYTON         MOSUNNY   58  39  49 VRB7      30.18F
WRIGHT-PAT AFB MOSUNNY   59  40  48 E8        30.18S
DAYTON GENERAL SUNNY     56  42  59 E8G16     30.17S
WILMINGTON     PTSUNNY   51  43  74 VRB6      30.18F
$$

OHZ036-037-039>041-045>050-054>059-063>069-073>076-082>088-292000-
  CENTRAL AND SOUTHEAST OHIO

CITY           SKY/WX    TMP DP  RH WIND       PRES   REMARKS
COLUMBUS       MOSUNNY   61  39  44 NE7       30.17F
OSU AIRPORT    SUNNY     58  39  49 NE8       30.17F
BOLTON FIELD   SUNNY     59  39  47 E7        30.17F
RICKENBACK AFB NOT AVBL
NEWARK         SUNNY     60  36  40 NE7       30.16F
MARION         SUNNY     56  40  55 NE15G21   30.21F
LANCASTER      SUNNY     61  40  45 NE5       30.17F
ZANESVILLE     SUNNY     60  36  40 NE8       30.17S
NEW PHILLY     NOT AVBL
$$




USA.gov is the U.S. government's official web portal to all federal, state and local government web resources and services.